Flag for U.S.A. Weather past 2 weeks in Visalia, California, U.S.A.

Now
66 °F

Clear.


Feels Like: 66 °F
Forecast: 68 / 104 °F
Wind: 3 mph from Southeast

Location: Visalia Municipal

Current Time: Jul 29, 2015 at 5:25:55 AM

Latest Report: Jul 29, 2015 at 4:55 AM


Visibility: 10 mi

Pressure: 29.82 "Hg

Humidity: 68%

Dew point: 55 °F

Location of VisaliaLocation

Historic Weather in Visalia — Graph

°F

Visalia temperature yesterday

Maximum temperature yesterday: 99 °F (at 3:55 PM)
Minimum temperature yesterday: 63 °F (at 5:55 AM)
Average temperature yesterday: 81 °F

Past Weeks' High & Low Weather Summary

 TemperatureHumidityPressure
High100 °F (Jul 21, 4:55 PM)78% (Jul 20, 8:35 AM)30.06 "Hg (Jul 20, 8:35 AM)
Low61 °F (Jul 15, 5:55 AM)17% (Jul 27, 5:15 PM)29.66 "Hg (Jul 17, 5:35 PM)
Average80 °F46%29.85 "Hg
* Reported Jul 14 3:15 AM — Jul 29 3:55 AM, Visalia, Weather by CustomWeather, © 2015

Note: Actual official high and low records may vary slightly from our data, if they occured in-between our weather recording intervals... More about our weather records

Advertising

Visalia weather history for previous 24 hours

 ConditionsComfort  
Time TempWeatherWind HumidityBarometerVisibility
3:55 AM
Wed, Jul 29
70 °FClear.No wind60%29.81 "Hg10 mi
3:35 AM70 °FClear.No wind60%29.81 "Hg10 mi
3:15 AM70 °FClear.No wind60%29.81 "Hg10 mi
2:55 AM70 °FClear.No wind64%29.81 "Hg10 mi
2:35 AM70 °FClear.No wind60%29.81 "Hg10 mi
2:15 AM72 °FClear.No wind61%29.81 "Hg10 mi
1:55 AM72 °FClear.No wind61%29.81 "Hg10 mi
1:35 AM72 °FClear.5 mph61%29.81 "Hg10 mi
1:15 AM70 °FClear.6 mph60%29.82 "Hg10 mi
12:35 AM72 °FClear.3 mph57%29.81 "Hg10 mi
12:15 AM73 °FClear.3 mph53%29.81 "Hg10 mi
11:55 PM
Tue, Jul 28
73 °FClear.No wind53%29.81 "Hg10 mi
11:35 PM75 °FClear.No wind54%29.80 "Hg10 mi
11:15 PM77 °FClear.No wind51%29.80 "Hg10 mi
10:55 PM77 °FClear.No wind51%29.80 "Hg10 mi
10:35 PM77 °FClear.No wind51%29.80 "Hg10 mi
10:15 PM79 °FClear.No wind42%29.80 "Hg10 mi
9:55 PM82 °FClear.5 mph37%29.78 "Hg10 mi
9:35 PM84 °FClear.7 mph37%29.78 "Hg10 mi
8:55 PM86 °FSunny.3 mph33%29.77 "Hg10 mi
8:15 PM88 °FSunny.5 mph31%29.75 "Hg10 mi
7:55 PM91 °FSunny.5 mph26%29.74 "Hg10 mi
7:35 PM91 °FSunny.6 mph26%29.74 "Hg10 mi
7:15 PM93 °FSunny.7 mph26%29.74 "Hg10 mi
6:55 PM95 °FSunny.7 mph25%29.73 "Hg10 mi
6:35 PM95 °FSunny.8 mph25%29.74 "Hg10 mi
5:55 PM97 °FSunny.10 mph23%29.74 "Hg10 mi
5:35 PM99 °FSunny.8 mph22%29.74 "Hg10 mi
5:15 PM99 °FSunny.8 mph21%29.74 "Hg10 mi
4:55 PM99 °FSunny.8 mph22%29.74 "Hg10 mi
4:35 PM97 °FSunny.9 mph23%29.75 "Hg10 mi
4:15 PM97 °FSunny.8 mph22%29.75 "Hg10 mi
3:55 PM99 °FSunny.10 mph21%29.76 "Hg10 mi
3:35 PM97 °FSunny.8 mph22%29.77 "Hg10 mi
3:15 PM97 °FSunny.10 mph23%29.78 "Hg10 mi
2:55 PM95 °FSunny.6 mph25%29.79 "Hg10 mi
2:35 PM93 °FSunny.10 mph26%29.79 "Hg10 mi
2:15 PM93 °FSunny.9 mph26%29.80 "Hg10 mi
1:55 PM93 °FSunny.9 mph26%29.81 "Hg10 mi
1:35 PM91 °FSunny.7 mph28%29.81 "Hg10 mi
1:15 PM91 °FSunny.9 mph30%29.82 "Hg10 mi
12:55 PM91 °FSunny.7 mph28%29.83 "Hg10 mi
12:35 PM91 °FSunny.7 mph28%29.83 "Hg10 mi
12:15 PM90 °FSunny.7 mph29%29.84 "Hg10 mi
11:55 AM88 °FSunny.8 mph33%29.84 "Hg10 mi
11:35 AM88 °FSunny.6 mph33%29.84 "Hg10 mi
11:15 AM86 °FSunny.6 mph35%29.85 "Hg10 mi
10:55 AM84 °FSunny.7 mph40%29.85 "Hg10 mi
10:35 AM82 °FSunny.5 mph42%29.85 "Hg9 mi
10:15 AM81 °FSunny.No wind45%29.86 "Hg10 mi
9:55 AM79 °FSunny.5 mph45%29.86 "Hg10 mi
9:35 AM77 °FSunny.5 mph47%29.86 "Hg10 mi
9:15 AM75 °FSunny.3 mph50%29.86 "Hg10 mi
8:55 AM73 °FSunny.5 mph53%29.86 "Hg10 mi
8:35 AM72 °FSunny.3 mph57%29.86 "Hg10 mi
8:15 AM70 °FSunny.3 mph60%29.86 "Hg10 mi
7:55 AM70 °FSunny.3 mph57%29.85 "Hg10 mi
7:35 AM68 °FSunny.No wind60%29.85 "Hg10 mi
7:15 AM66 °FSunny.No wind64%29.85 "Hg10 mi
6:55 AM64 °FClear.3 mph68%29.84 "Hg10 mi
6:35 AM63 °FClear.No wind68%29.84 "Hg10 mi
6:15 AM63 °FClear.3 mph68%29.83 "Hg10 mi
5:55 AM63 °FClear.3 mph68%29.83 "Hg10 mi
5:35 AM64 °FClear.No wind64%29.83 "Hg10 mi
5:15 AM64 °FClear.No wind64%29.82 "Hg10 mi
Weather by CustomWeather, © 2015

See weather overviewHow to use our weather pages